Location: Oteiza
(42.6167°N, 1.9500°W)
Time: 04:59:25
(UTC+02:00)

Amateur Radio Satellites - All Passes

Search period start: 21 August 2017 04:29
Search period end: 22 August 2017 04:29
Location: Oteiza, 42.6167°N, 1.9500°W

Satellite Date Start Highest point End Downlink Frequencies (MHz)
Time Altitude Azimuth
Oscar 19 21 Aug 04:36:53 04:41:37 36° 292° (WNW) 04:46:21 437.125/150
MOZHAYETS 4 21 Aug 04:54:31 04:59:01 62° 260° (W) 05:03:32
AO-7 21 Aug 05:05:11 05:12:55 40° 99° (E) 05:20:34 .
KKS-1 21 Aug 05:08:28 05:11:34 19° 64° (ENE) 05:14:40 437.445
BEESAT 21 Aug 05:09:15 05:13:38 37° 262° (W) 05:18:02 436.000
CUBESAT XI-V 21 Aug 05:13:54 05:18:17 43° 71° (ENE) 05:22:44 437.345
ITUPSAT 1 21 Aug 05:45:01 05:48:10 18° 268° (W) 05:51:21 437.325
STARS 21 Aug 05:47:19 05:50:29 20° 65° (ENE) 05:53:39 437.465
Gurwin Techsat 1B 21 Aug 05:50:12 05:52:58 14° 302° (WNW) 05:55:43 435.225
ITAMSAT 1 21 Aug 05:55:36 06:00:49 89° 288° (WNW) 06:05:59 435.822/435.867
AO-85 21 Aug 06:13:59 06:16:54 20° 113° (ESE) 06:19:48 145.980
YUBILEINY 21 Aug 06:18:46 06:25:46 28° 278° (W) 06:32:46 435.215
BEESAT 3 21 Aug 06:28:22 06:32:13 48° 118° (ESE) 06:36:08 437.485
BEESAT 2 21 Aug 06:42:43 06:45:51 22° 113° (ESE) 06:49:02 435.950
KKS-1 21 Aug 06:43:29 06:47:46 45° 260° (W) 06:52:05 437.445
CUBESAT XI-V 21 Aug 06:52:28 06:55:51 20° 268° (W) 06:59:16 437.345
AO-7 21 Aug 06:57:54 07:05:46 49° 298° (WNW) 07:13:35 .
DOVE 4 21 Aug 07:10:46 07:15:05 41° 97° (E) 07:19:10 437.250
XW-2F 21 Aug 07:13:19 07:14:52 12° 91° (E) 07:16:25 145.980 - 146.000
PCSat 21 Aug 07:20:13 07:22:44 13° 35° (NE) 07:25:14 145.827
STARS 21 Aug 07:22:22 07:26:32 41° 261° (W) 07:30:43 437.465
STRAND 1 21 Aug 07:23:32 07:26:48 17° 61° (ENE) 07:30:04 437.568
SO-50 21 Aug 07:34:21 07:36:27 13° 34° (NE) 07:38:32 436.795
ITAMSAT 1 21 Aug 07:37:18 07:39:30 13° 303° (WNW) 07:41:43 435.822/435.867
KAITUO 1B 21 Aug 07:37:35 07:40:19 19° 93° (E) 07:43:03 145.475/437.950
AO-85 21 Aug 07:53:25 07:57:03 35° 310° (NW) 08:00:41 145.980
LilacSat-2 21 Aug 07:58:56 08:02:42 48° 99° (E) 08:06:28 437.200
XW-2D 21 Aug 08:03:11 08:06:57 53° 99° (E) 08:10:43 145.860 - 145.880
CUTE-I 21 Aug 08:04:07 08:09:10 42° 98° (E) 08:14:11 437.470
BEESAT 3 21 Aug 08:07:03 08:10:02 20° 317° (NW) 08:13:04 437.485
NUDT-PHONESAT 21 Aug 08:09:41 08:13:17 43° 99° (E) 08:16:53 437.300
XW-2B 21 Aug 08:14:11 08:18:02 70° 102° (ESE) 08:21:51 145.730 - 145.750
BEESAT 2 21 Aug 08:19:42 08:23:24 35° 311° (NW) 08:27:11 435.950
XW-2C 21 Aug 08:33:18 08:37:07 66° 284° (WNW) 08:40:56 145.795 - 145.815
HO-68 21 Aug 08:33:59 08:40:06 30° 95° (E) 08:46:12 435.675
XW-2F 21 Aug 08:45:33 08:49:15 49° 287° (WNW) 08:52:57 145.980 - 146.000
DOVE 4 21 Aug 08:49:10 08:52:26 20° 296° (WNW) 08:55:35 437.250
AO-7 21 Aug 08:53:48 08:56:30 12° 320° (NW) 08:59:13 .
STRAND 1 21 Aug 09:00:23 09:05:27 65° 258° (WSW) 09:10:33 437.568
PCSat 21 Aug 09:01:53 09:07:17 61° 57° (ENE) 09:12:37 145.827
AAUSAT CUBESAT 2 21 Aug 09:06:08 09:08:09 13° 90° (E) 09:10:11 437.432
CUTE 1.7 + AOD 2 21 Aug 09:06:44 09:10:55 48° 99° (E) 09:15:03 437.475
NO-84 21 Aug 09:07:09 09:09:58 35° 34° (NE) 09:12:57 435.350 FM
KAITUO 1B 21 Aug 09:11:00 09:14:21 30° 289° (WNW) 09:17:42 145.475/437.950
UWE-3 21 Aug 09:11:33 09:14:19 17° 92° (E) 09:17:07 435.000/436.395/437.385
XW-2A 21 Aug 09:11:44 09:14:35 24° 96° (E) 09:17:25 145.665 - 145.685
SO-50 21 Aug 09:13:12 09:17:45 68° 54° (NE) 09:22:20 436.795
CUBEBUG 2 21 Aug 09:18:04 09:21:53 33° 97° (E) 09:25:46 437.445
FO-29 21 Aug 09:34:16 09:40:47 34° 65° (ENE) 09:46:46 435.910
LilacSat-2 21 Aug 09:34:37 09:36:34 14° 296° (WNW) 09:38:30 437.200
XW-2D 21 Aug 09:39:02 09:40:40 12° 296° (WNW) 09:42:18 145.860 - 145.880
CUTE-I 21 Aug 09:44:37 09:48:59 26° 296° (WNW) 09:53:19 437.470
NUDT-PHONESAT 21 Aug 09:44:51 09:46:48 14° 295° (WNW) 09:48:45 437.300
Tancredo 1 21 Aug 09:47:38 09:49:20 15° 133° (SE) 09:51:03 437.200
ZACube-1 21 Aug 09:50:38 09:54:10 24° 95° (E) 09:57:44 437.345
UNISAT 6 21 Aug 09:52:15 09:53:55 12° 62° (ENE) 09:55:35 437.425
SEEDS 21 Aug 09:54:26 09:58:43 78° 285° (WNW) 10:02:57 437.485
AO-73 21 Aug 10:11:27 10:15:27 36° 98° (E) 10:19:29 145.935
HO-68 21 Aug 10:21:11 10:28:07 55° 293° (WNW) 10:35:02 435.675
TIGRISAT 21 Aug 10:25:16 10:28:44 24° 67° (ENE) 10:32:10 435.000
AAUSAT CUBESAT 2 21 Aug 10:39:51 10:43:56 53° 287° (WNW) 10:47:59 437.432
CUTE 1.7 + AOD 2 21 Aug 10:43:39 10:46:21 16° 296° (WNW) 10:49:01 437.475
XW-2A 21 Aug 10:44:43 10:47:09 18° 292° (WNW) 10:49:34 145.665 - 145.685
NO-84 21 Aug 10:44:44 10:47:14 22° 229° (SW) 10:49:54 435.350 FM
PCSat 21 Aug 10:46:21 10:50:10 20° 254° (WSW) 10:53:58 145.827
RS-15 21 Aug 10:46:35 10:54:22 20° 97° (E) 11:02:11 29.354- 29.394
UWE-3 21 Aug 10:46:56 10:50:57 43° 288° (WNW) 10:55:04 435.000/436.395/437.385
M-CUBED/EXP-1 PRIME 21 Aug 10:52:49 10:53:17 10° 52° (NE) 10:53:46 437.505
CUBEBUG 2 21 Aug 10:55:06 10:58:20 22° 293° (WNW) 11:01:37 437.445
SO-50 21 Aug 10:55:16 10:57:40 14° 251° (WSW) 11:00:05 436.795
Oscar 11 21 Aug 10:56:19 11:00:42 85° 103° (ESE) 11:05:03 .
ISS 21 Aug 10:56:28 10:59:00 21° 134° (SE) 11:01:32 437.550
nSIGHT-1 21 Aug 11:04:25 11:07:11 26° 136° (SE) 11:09:58 .
O/OREOS (USA 219) 21 Aug 11:16:21 11:20:49 85° 296° (WNW) 11:25:18 437.305
FO-29 21 Aug 11:18:10 11:25:34 52° 260° (W) 11:32:19 435.910
Tancredo 1 21 Aug 11:21:21 11:24:14 57° 329° (NNW) 11:27:06 437.200
UNISAT 6 21 Aug 11:25:46 11:30:05 69° 259° (WSW) 11:34:21 437.425
ZACube-1 21 Aug 11:26:41 11:30:25 30° 290° (WNW) 11:34:14 437.345
PRISM 21 Aug 11:28:47 11:32:56 89° 244° (WSW) 11:37:08 437.425
Max Valier Satellite 21 Aug 11:29:43 11:33:07 34° 97° (E) 11:36:31 145.860
DELFI C3 21 Aug 11:44:17 11:48:17 71° 103° (ESE) 11:52:12 145.870
AO-73 21 Aug 11:48:14 11:51:27 21° 293° (WNW) 11:54:42 145.935
AIST 2D 21 Aug 11:53:09 11:55:55 23° 70° (ENE) 11:58:44 435.315
NANOSAT C BR1 21 Aug 11:57:51 11:59:42 13° 62° (ENE) 12:01:34 145.865
TIGRISAT 21 Aug 12:01:27 12:05:17 31° 263° (W) 12:09:06 435.000
POLYITAN 1 21 Aug 12:01:56 12:04:27 16° 64° (ENE) 12:06:57 437.675
HO-68 21 Aug 12:12:17 12:14:18 11° 313° (NW) 12:16:18 435.675
QB50P2 21 Aug 12:16:03 12:19:26 24° 67° (ENE) 12:22:49 145.880/145.840
EO-79 21 Aug 12:16:50 12:20:06 22° 67° (ENE) 12:23:21 145.935-145.965
LO-87 21 Aug 12:20:44 12:22:29 13° 92° (E) 12:24:15 145.935 - 145.965
M-CUBED/EXP-1 PRIME 21 Aug 12:22:19 12:26:48 73° 70° (ENE) 12:31:28 437.505
EO-88 21 Aug 12:23:19 12:26:57 62° 285° (WNW) 12:30:35 145.990 - 145.960
ISS 21 Aug 12:32:03 12:35:15 51° 331° (NNW) 12:38:28 437.550
Oscar 11 21 Aug 12:35:29 12:36:08 10° 300° (WNW) 12:36:48 .
nSIGHT-1 21 Aug 12:40:19 12:43:27 42° 333° (NNW) 12:46:35 .
DUCHIFAT 1 21 Aug 12:46:00 12:49:48 35° 70° (ENE) 12:53:37 145.980
BUGSAT 1 21 Aug 12:48:34 12:49:36 11° 62° (ENE) 12:50:37 437.445
RS-15 21 Aug 12:52:36 13:04:47 78° 118° (ESE) 13:17:07 29.354- 29.394
Tancredo 1 21 Aug 12:57:52 12:59:52 17° 348° (NNW) 13:01:52 437.200
O/OREOS (USA 219) 21 Aug 12:59:44 13:00:57 11° 312° (NW) 13:02:11 437.305
Max Valier Satellite 21 Aug 13:04:18 13:06:42 17° 293° (WNW) 13:09:06 145.860
DELFI C3 21 Aug 13:21:49 13:22:26 10° 298° (WNW) 13:23:03 145.870
AIST 2D 21 Aug 13:26:24 13:29:04 20° 266° (W) 13:31:45 435.315
NANOSAT C BR1 21 Aug 13:30:45 13:34:54 62° 259° (W) 13:39:04 145.865
ESTCUBE 1 21 Aug 13:34:28 13:39:01 66° 102° (ESE) 13:43:31 437.505/2401.250
POLYITAN 1 21 Aug 13:35:46 13:39:50 48° 260° (W) 13:43:55 437.675
VELOX 1 21 Aug 13:41:36 13:44:16 16° 91° (E) 13:46:55 145.980
SPROUT 21 Aug 13:47:08 13:50:27 22° 94° (E) 13:53:46 437.525
QB50P2 21 Aug 13:51:23 13:55:05 30° 264° (W) 13:58:49 145.880/145.840
EO-79 21 Aug 13:51:54 13:55:41 32° 263° (W) 13:59:29 145.935-145.965
Gurwin Techsat 1B 21 Aug 13:52:18 13:56:04 20° 62° (ENE) 13:59:51 435.225
LO-87 21 Aug 13:52:48 13:56:05 36° 288° (WNW) 13:59:20 145.935 - 145.965
M-CUBED/EXP-1 PRIME 21 Aug 13:59:45 14:01:41 12° 266° (W) 14:03:39 437.505
ISS 21 Aug 14:09:53 14:12:17 19° 351° (N) 14:14:41 437.550
Oscar 19 21 Aug 14:15:07 14:19:59 45° 69° (ENE) 14:24:54 437.125/150
AO-7 21 Aug 14:17:30 14:21:39 15° 44° (NE) 14:25:49 .
nSIGHT-1 21 Aug 14:18:08 14:20:27 18° 353° (N) 14:22:44 .
BUGSAT 1 21 Aug 14:20:19 14:24:24 71° 259° (WSW) 14:28:27 437.445
DUCHIFAT 1 21 Aug 14:22:32 14:25:34 19° 267° (W) 14:28:37 145.980
Tancredo 1 21 Aug 14:34:04 14:35:54 15° 8° (N) 14:37:43 437.200
50 SAT 21 Aug 14:38:48 14:41:25 21° 95° (E) 14:44:01 437.505
AO-85 21 Aug 14:42:48 14:46:27 27° 47° (NE) 14:50:18 145.980
BEESAT 3 21 Aug 14:44:26 14:48:10 36° 50° (NE) 14:51:50 437.485
UKube-1 21 Aug 14:56:06 14:59:05 18° 93° (E) 15:02:02 .
BEESAT 2 21 Aug 14:59:11 15:02:16 20° 44° (NE) 15:05:20 435.950
RS-15 21 Aug 15:07:09 15:18:33 41° 325° (NW) 15:29:57 29.354- 29.394
ESTCUBE 1 21 Aug 15:12:55 15:15:15 14° 299° (WNW) 15:17:35 437.505/2401.250
VELOX 1 21 Aug 15:16:43 15:21:00 50° 288° (WNW) 15:25:15 145.980
DX 1 21 Aug 15:17:23 15:21:37 47° 100° (E) 15:25:46 434.975-435.025
SPROUT 21 Aug 15:22:36 15:26:23 32° 291° (WNW) 15:30:10 437.525
Gurwin Techsat 1B 21 Aug 15:30:20 15:35:33 58° 259° (W) 15:40:49 435.225
YUBILEINY 21 Aug 15:32:13 15:35:49 13° 73° (ENE) 15:39:25 435.215
ITAMSAT 1 21 Aug 15:36:40 15:40:27 21° 62° (ENE) 15:44:13 435.822/435.867
ISS 21 Aug 15:47:11 15:49:38 19° 11° (N) 15:52:05 437.550
nSIGHT-1 21 Aug 15:55:10 15:57:41 20° 13° (NNE) 16:00:11 .
Oscar 19 21 Aug 15:55:29 15:59:29 23° 267° (W) 16:03:32 437.125/150
AO-7 21 Aug 16:04:34 16:12:43 59° 65° (ENE) 16:20:52 .
ITUPSAT 1 21 Aug 16:07:13 16:09:02 12° 89° (E) 16:10:49 437.325
Tancredo 1 21 Aug 16:08:52 16:11:39 41° 27° (NNE) 16:14:25 437.200
50 SAT 21 Aug 16:11:23 16:14:00 21° 291° (WNW) 16:16:35 437.505
BEESAT 3 21 Aug 16:22:28 16:25:31 21° 247° (WSW) 16:28:31 437.485
AO-85 21 Aug 16:22:53 16:26:56 38° 243° (WSW) 16:31:14 145.980
UKube-1 21 Aug 16:31:13 16:35:16 41° 290° (WNW) 16:39:18 .
BEESAT 2 21 Aug 16:36:20 16:40:15 46° 242° (WSW) 16:44:05 435.950
MOZHAYETS 4 21 Aug 16:48:54 16:52:55 28° 95° (E) 16:56:54
DX 1 21 Aug 16:54:33 16:57:25 17° 297° (WNW) 17:00:16 434.975-435.025
BEESAT 21 Aug 17:08:01 17:12:40 51° 100° (E) 17:17:17 436.000
CUBESAT XI-V 21 Aug 17:13:04 17:13:15 10° 87° (E) 17:13:27 437.345
ITAMSAT 1 21 Aug 17:14:24 17:19:30 54° 259° (W) 17:24:36 435.822/435.867
YUBILEINY 21 Aug 17:22:12 17:30:55 72° 93° (E) 17:39:37 435.215
ISS 21 Aug 17:23:23 17:26:37 57° 30° (NNE) 17:29:50 437.550
RS-15 21 Aug 17:26:05 17:35:42 25° 358° (N) 17:45:08 29.354- 29.394
nSIGHT-1 21 Aug 17:31:15 17:34:29 71° 31° (NNE) 17:37:43 .
ITUPSAT 1 21 Aug 17:42:35 17:47:22 75° 286° (WNW) 17:52:07 437.325
Tancredo 1 21 Aug 17:44:24 17:46:40 21° 225° (SW) 17:48:56 437.200
CUTE-I 21 Aug 17:51:16 17:52:42 11° 56° (NE) 17:54:08 437.470
AO-7 21 Aug 17:58:33 18:05:50 33° 264° (W) 18:13:10 .
DOVE 4 21 Aug 18:15:31 18:20:36 50° 72° (ENE) 18:25:34 437.250
KAITUO 1B 21 Aug 18:20:22 18:21:01 10° 63° (ENE) 18:21:39 145.475/437.950
MOZHAYETS 4 21 Aug 18:26:01 18:30:01 30° 292° (WNW) 18:34:01
KKS-1 21 Aug 18:33:40 18:37:36 30° 97° (E) 18:41:29 437.445
LilacSat-2 21 Aug 18:41:38 18:44:48 26° 70° (ENE) 18:48:01 437.200
XW-2D 21 Aug 18:45:11 18:48:23 27° 70° (ENE) 18:51:37 145.860 - 145.880
CUBESAT XI-V 21 Aug 18:46:28 18:51:14 84° 284° (WNW) 18:55:56 437.345
BEESAT 21 Aug 18:46:44 18:50:03 19° 297° (WNW) 18:53:21 436.000
NUDT-PHONESAT 21 Aug 18:49:54 18:52:45 22° 68° (ENE) 18:55:38 437.300
XW-2B 21 Aug 18:55:59 18:59:24 35° 72° (ENE) 19:02:52 145.730 - 145.750
ISS 21 Aug 19:00:31 19:02:49 18° 227° (SW) 19:05:06 437.550
HO-68 21 Aug 19:04:11 19:09:46 25° 58° (ENE) 19:15:21 435.675
nSIGHT-1 21 Aug 19:08:41 19:10:30 14° 229° (SW) 19:12:18 .
STARS 21 Aug 19:10:50 19:14:42 31° 97° (E) 19:18:34 437.465
XW-2C 21 Aug 19:14:47 19:18:28 62° 74° (ENE) 19:22:13 145.795 - 145.815
YUBILEINY 21 Aug 19:21:27 19:28:31 26° 295° (WNW) 19:35:36 435.215
XW-2F 21 Aug 19:26:27 19:30:11 83° 77° (ENE) 19:33:58 145.980 - 146.000
CUTE-I 21 Aug 19:26:28 19:31:48 75° 74° (ENE) 19:37:09 437.470
RS-15 21 Aug 19:41:53 19:53:01 38° 33° (NNE) 20:03:38 29.354- 29.394
O/OREOS (USA 219) 21 Aug 19:46:54 19:50:32 23° 56° (NE) 19:54:10 437.305
KAITUO 1B 21 Aug 19:50:49 19:54:28 60° 259° (W) 19:58:11 145.475/437.950
DOVE 4 21 Aug 19:54:27 19:58:27 22° 268° (W) 20:02:25 437.250
AAUSAT CUBESAT 2 21 Aug 19:58:26 19:59:14 10° 61° (ENE) 20:00:01 437.432
CUTE 1.7 + AOD 2 21 Aug 19:59:50 20:03:43 36° 71° (ENE) 20:07:38 437.475
UWE-3 21 Aug 20:09:57 20:12:19 15° 64° (ENE) 20:14:41 435.000/436.395/437.385
KKS-1 21 Aug 20:10:21 20:14:02 26° 293° (WNW) 20:17:42 437.445
LilacSat-2 21 Aug 20:16:06 20:19:03 22° 266° (W) 20:22:03 437.200
CUBEBUG 2 21 Aug 20:16:54 20:20:37 30° 70° (ENE) 20:24:15 437.445
XW-2D 21 Aug 20:19:44 20:22:34 20° 266° (W) 20:25:25 145.860 - 145.880
NUDT-PHONESAT 21 Aug 20:23:30 20:26:31 24° 265° (W) 20:29:35 437.300
CUBESAT XI-V 21 Aug 20:27:06 20:27:47 10° 301° (WNW) 20:28:29 437.345
XW-2B 21 Aug 20:31:22 20:33:43 16° 268° (W) 20:36:05 145.730 - 145.750
SEEDS 21 Aug 20:46:11 20:50:23 76° 75° (ENE) 20:54:37 437.485
STARS 21 Aug 20:47:21 20:50:55 25° 293° (WNW) 20:54:27 437.465
ZACube-1 21 Aug 20:47:34 20:50:38 20° 67° (ENE) 20:53:42 437.345
HO-68 21 Aug 20:49:45 20:56:52 69° 256° (WSW) 21:04:01 435.675
AO-73 21 Aug 21:07:46 21:11:22 29° 69° (ENE) 21:14:58 145.935
CUTE-I 21 Aug 21:09:35 21:12:24 14° 270° (W) 21:15:14 437.470
STRAND 1 21 Aug 21:10:11 21:14:58 40° 98° (E) 21:19:45 437.568
XW-2A 21 Aug 21:15:29 21:18:41 48° 260° (W) 21:21:56 145.665 - 145.685
O/OREOS (USA 219) 21 Aug 21:25:50 21:30:04 39° 254° (WSW) 21:34:17 437.305
AAUSAT CUBESAT 2 21 Aug 21:29:53 21:34:01 77° 257° (WSW) 21:38:14 437.432
CUTE 1.7 + AOD 2 21 Aug 21:36:35 21:39:40 19° 267° (W) 21:42:46 437.475
UWE-3 21 Aug 21:44:19 21:48:23 49° 261° (W) 21:52:25 435.000/436.395/437.385
Oscar 11 21 Aug 21:51:19 21:55:35 69° 76° (ENE) 21:59:53 .
CUBEBUG 2 21 Aug 21:53:47 21:57:14 23° 265° (W) 22:00:38 437.445
RS-15 21 Aug 21:54:52 22:06:58 83° 241° (WSW) 22:18:22 29.354- 29.394
Max Valier Satellite 21 Aug 22:09:55 22:12:23 18° 67° (ENE) 22:14:52 145.860
ZACube-1 21 Aug 22:22:56 22:26:42 34° 263° (W) 22:30:30 437.345
FO-29 21 Aug 22:28:54 22:32:41 19° 90° (E) 22:36:18 435.910
DELFI C3 21 Aug 22:29:54 22:33:40 42° 72° (ENE) 22:37:28 145.870
HO-68 21 Aug 22:44:11 22:45:50 11° 275° (W) 22:47:29 435.675
AO-73 21 Aug 22:44:21 22:47:37 22° 266° (W) 22:50:54 145.935
STRAND 1 21 Aug 22:49:47 22:53:57 26° 295° (WNW) 22:58:05 437.568
EO-88 21 Aug 23:01:12 23:04:46 57° 74° (ENE) 23:08:21 145.990 - 145.960
PRISM 21 Aug 23:11:28 23:12:54 12° 90° (E) 23:14:20 437.425
UNISAT 6 21 Aug 23:16:56 23:20:19 22° 94° (E) 23:23:45 437.425
SO-50 21 Aug 23:29:30 23:32:30 18° 111° (ESE) 23:35:29 436.795
Oscar 11 21 Aug 23:31:08 23:32:11 11° 271° (W) 23:33:14 .
Max Valier Satellite 21 Aug 23:42:44 23:45:59 30° 263° (W) 23:49:16 145.860
PCSat 21 Aug 23:44:07 23:49:17 48° 113° (ESE) 23:54:29 145.827
TIGRISAT 21 Aug 23:51:14 23:55:24 47° 99° (E) 23:59:38 435.000
DELFI C3 22 Aug 00:06:15 00:08:37 15° 268° (W) 00:11:01 145.870
RS-15 22 Aug 00:09:33 00:17:25 21° 262° (W) 00:25:04 29.354- 29.394
FO-29 22 Aug 00:12:51 00:18:18 53° 290° (WNW) 00:23:21 435.910
LO-87 22 Aug 00:28:42 00:32:17 90° 110° (ESE) 00:35:53 145.935 - 145.965
ESTCUBE 1 22 Aug 00:34:16 00:38:43 65° 74° (ENE) 00:43:13 437.505/2401.250
VELOX 1 22 Aug 00:39:38 00:42:26 17° 63° (ENE) 00:45:15 145.980
SPROUT 22 Aug 00:41:21 00:44:24 19° 66° (ENE) 00:47:27 437.525
PRISM 22 Aug 00:44:29 00:48:33 59° 287° (WNW) 00:52:34 437.425
AIST 2D 22 Aug 00:49:57 00:52:56 25° 96° (E) 00:55:56 435.315
UNISAT 6 22 Aug 00:53:12 00:57:06 34° 290° (WNW) 01:01:01 437.425
SO-50 22 Aug 01:08:07 01:12:32 54° 308° (NW) 01:16:58 436.795
NANOSAT C BR1 22 Aug 01:14:55 01:17:56 19° 93° (E) 01:20:56 145.865
POLYITAN 1 22 Aug 01:20:01 01:23:27 24° 95° (E) 01:26:54 437.675
PCSat 22 Aug 01:28:14 01:32:53 29° 312° (NW) 01:37:35 145.827
TIGRISAT 22 Aug 01:28:59 01:31:45 17° 295° (WNW) 01:34:32 435.000
QB50P2 22 Aug 01:34:50 01:38:47 38° 98° (E) 01:42:44 145.880/145.840
M-CUBED/EXP-1 PRIME 22 Aug 01:34:59 01:39:11 46° 104° (ESE) 01:43:04 437.505
EO-79 22 Aug 01:35:18 01:39:10 35° 98° (E) 01:43:02 145.935-145.965
UKube-1 22 Aug 01:51:23 01:54:19 18° 64° (ENE) 01:57:15 .
NO-84 22 Aug 02:01:56 02:04:20 23° 131° (SE) 02:06:41 435.350 FM
BUGSAT 1 22 Aug 02:02:27 02:04:43 15° 92° (E) 02:06:59 437.445
DUCHIFAT 1 22 Aug 02:04:09 02:08:18 59° 101° (E) 02:12:25 145.980
DX 1 22 Aug 02:13:14 02:17:24 44° 71° (ENE) 02:21:34 434.975-435.025
ESTCUBE 1 22 Aug 02:13:59 02:15:57 13° 270° (W) 02:17:54 437.505/2401.250
VELOX 1 22 Aug 02:14:07 02:18:27 52° 260° (W) 02:22:50 145.980
SPROUT 22 Aug 02:16:03 02:20:01 39° 262° (W) 02:24:02 437.525
AIST 2D 22 Aug 02:23:20 02:25:59 20° 291° (WNW) 02:28:38 435.315
Oscar 19 22 Aug 02:27:15 02:30:08 15° 90° (E) 02:33:01 437.125/150
50 SAT 22 Aug 02:41:52 02:45:12 55° 259° (WSW) 02:48:34 437.505
NANOSAT C BR1 22 Aug 02:49:54 02:53:45 37° 289° (WNW) 02:57:37 145.865
SO-50 22 Aug 02:52:53 02:54:01 11° 329° (NNW) 02:55:08 436.795
POLYITAN 1 22 Aug 02:55:34 02:59:13 29° 291° (WNW) 03:02:53 437.675
M-CUBED/EXP-1 PRIME 22 Aug 03:10:10 03:13:11 18° 302° (WNW) 03:16:04 437.505
QB50P2 22 Aug 03:11:18 03:14:18 19° 295° (WNW) 03:17:18 145.880/145.840
EO-79 22 Aug 03:11:34 03:14:42 21° 294° (WNW) 03:17:50 145.935-145.965
ITUPSAT 1 22 Aug 03:14:12 03:17:12 17° 62° (ENE) 03:20:11 437.325
UKube-1 22 Aug 03:25:51 03:29:59 44° 261° (W) 03:34:10 .
YUBILEINY 22 Aug 03:31:49 03:39:42 36° 70° (ENE) 03:47:30 435.215
BUGSAT 1 22 Aug 03:36:28 03:40:18 44° 288° (WNW) 03:44:08 437.445
NO-84 22 Aug 03:39:04 03:41:37 28° 328° (NNW) 03:44:09 435.350 FM
DUCHIFAT 1 22 Aug 03:41:29 03:43:28 13° 297° (WNW) 03:45:26 145.980
Gurwin Techsat 1B 22 Aug 03:45:41 03:50:54 52° 100° (E) 03:56:03 435.225
DX 1 22 Aug 03:50:52 03:53:47 17° 267° (W) 03:56:42 434.975-435.025
MOZHAYETS 4 22 Aug 03:51:25 03:55:21 30° 68° (ENE) 03:59:19
Oscar 19 22 Aug 04:04:45 04:09:57 70° 287° (WNW) 04:15:07 437.125/150
AO-7 22 Aug 04:07:25 04:12:09 16° 89° (E) 04:16:51 .
BEESAT 22 Aug 04:14:49 04:19:30 64° 73° (ENE) 04:24:13 436.000
CUBESAT XI-V 22 Aug 04:16:10 04:18:00 12° 60° (ENE) 04:19:49 437.345
